This is the latest recevied weather packets stored in our database for station/object K4AVM-13. If no packets are shown the sender has not sent any weather packets the latest 10 day(s).
| Time | Temp. | Humidity | Pressure | Rain* | Wind** | Luminosity | Snow |
|---|---|---|---|---|---|---|---|
| 1777838136 | 17.78° C | 30% | 1017.5 hPa | 0 mm | - | 511 W/m² | - |
| 1777837833 | 17.78° C | 32% | 1017.4 hPa | 0 mm | - | 524 W/m² | - |
| 1777837530 | 17.78° C | 30% | 1017.7 hPa | 0 mm | - | 535 W/m² | - |
| 1777837230 | 18.33° C | 29% | 1017.3 hPa | 0 mm | - | 546 W/m² | - |
| 1777836927 | 18.33° C | 31% | 1017.6 hPa | 0 mm | - | 556 W/m² | - |
| 1777836622 | 17.78° C | 33% | 1017.7 hPa | 0 mm | - | 567 W/m² | - |
| 1777836318 | 16.67° C | 32% | 1017.7 hPa | 0 mm | - | 576 W/m² | - |
| 1777836014 | 17.22° C | 32% | 1017.9 hPa | 0 mm | - | 586 W/m² | - |
| 1777835712 | 17.78° C | 32% | 1018 hPa | 0 mm | - | 596 W/m² | - |
| 1777835408 | 17.22° C | 30% | 1018 hPa | 0 mm | - | 606 W/m² | - |
| 1777835105 | 17.22° C | 31% | 1017.9 hPa | 0 mm | - | 615 W/m² | - |
| 1777834803 | 17.22° C | 33% | 1018.1 hPa | 0 mm | - | 625 W/m² | - |
| 1777834498 | 16.67° C | 31% | 1018.4 hPa | 0 mm | - | 632 W/m² | - |
| 1777834198 | 17.78° C | 30% | 1017.9 hPa | 0 mm | - | 639 W/m² | - |
| 1777833894 | 17.22° C | 31% | 1018.4 hPa | 0 mm | - | 645 W/m² | - |
| 1777833591 | 17.22° C | 36% | 1018.4 hPa | 0 mm | - | 653 W/m² | - |
| 1777833288 | 17.22° C | 33% | 1018.5 hPa | 0 mm | - | 660 W/m² | - |
| 1777832984 | 16.67° C | 31% | 1018.6 hPa | 0 mm | - | 667 W/m² | - |
| 1777832684 | 16.11° C | 30% | 1018.5 hPa | 0 mm | - | 673 W/m² | - |
| 1777832381 | 16.11° C | 32% | 1018.8 hPa | 0 mm | - | 678 W/m² | - |
| 1777832078 | 16.67° C | 36% | 1018.6 hPa | 0 mm | - | 684 W/m² | - |
| 1777831773 | 16.11° C | 33% | 1018.4 hPa | 0 mm | - | 688 W/m² | - |
| 1777831472 | 15.56° C | 33% | 1018.6 hPa | 0 mm | - | 693 W/m² | - |
| 1777831169 | 17.22° C | 33% | 1018.6 hPa | 0 mm | - | 697 W/m² | - |
| 1777830867 | 16.11° C | 35% | 1018.7 hPa | 0 mm | - | 699 W/m² | - |
* Rain latest hour (hover to see other rain measurements)
** Current wind speed in m/s (hover to see current wind gust speed)